Regional Weather Roundup
Issued by NWS

Home | Current Version | Previous Version | Text Only | Print | Product List | Glossary Off
Versions: 1 2 3 4 5 6 7 8 9 10 11 12 13 14 15 16 17 18 19 20 21 22 23 24 25 26 27 28

000
ASUS45 KCYS 261810
RWRWY

WYOMING REGIONAL WEATHER ROUNDUP
NATIONAL WEATHER SERVICE CHEYENNE WY
1200 PM MDT SUN MAR 26 2017

NOTE:  "FAIR" INDICATES FEW OR NO CLOUDS BELOW 12,000 FEET
WITH NO SIGNIFICANT WEATHER AND/OR OBSTRUCTIONS TO VISIBILITY.

WYZ001-261900-
YELLOWSTONE NATIONAL PARK

CITY           SKY/WX    TMP DP  RH WIND       PRES   REMARKS
LK YELLOWSTONE   N/A     34  23  64 VRB5      30.00F WCI  30
6HR MIN TEMP:  18; 6HR MAX TEMP:  34;

W YELLOWSTONE  NOT AVBL

$$
WYZ002>013-054>058-071-098>099-261900-
NORTHERN WYOMING

CITY           SKY/WX    TMP DP  RH WIND       PRES   REMARKS
JACKSON        SUNNY     39  21  48 SW12      30.01F WCI  32
CODY           FAIR      48  23  37 VRB5      29.96F
GREYBULL       FAIR      49  36  61 VRB3      29.96F
6HR MIN TEMP:  30; 6HR MAX TEMP:  49;

WORLAND        FAIR      51  33  50 CALM      29.96S
6HR MIN TEMP:  33; 6HR MAX TEMP:  51;

SHERIDAN       FAIR      50  31  48 CALM      29.96S
6HR MIN TEMP:  31; 6HR MAX TEMP:  52;

BUFFALO        FAIR      51  29  42 N9        29.97R
6HR MIN TEMP:  35; 6HR MAX TEMP:  51;

GILLETTE       CLOUDY    46  37  71 N6        29.95F
6HR MIN TEMP:  38; 6HR MAX TEMP:  46; 6HR PCP: TRACE;

HULETT         CLOUDY    43  36  75 N7        29.97R
NEWCASTLE      LGT RAIN  41  36  81 N16       29.93S

$$
WYZ014>020-022>026-101>103-261900-
CENTRAL WYOMING

CITY           SKY/WX    TMP DP  RH WIND       PRES   REMARKS
BIG PINEY      FAIR      39  17  41 NW6       30.03S WCI  35
6HR MIN TEMP:  21; 6HR MAX TEMP:  39;

PINEDALE       MOCLDY    32  28  86 N3        30.05S
DUBOIS         FAIR      39  18  41 NW9G16    29.97S WCI  33
LANDER         CLOUDY    49  30  48 E9        29.97R
6HR MIN TEMP:  36; 6HR MAX TEMP:  49;

RIVERTON       FAIR      48  27  44 NE6       29.98S
6HR MIN TEMP:  35; 6HR MAX TEMP:  48;

CASPER         CLOUDY    43  34  70 VRB6      29.98S
6HR MIN TEMP:  36; 6HR MAX TEMP:  44; 6HR PCP:  0.01;

DOUGLAS        CLOUDY    42  37  82 NW15      29.97R
6HR MIN TEMP:  35; 6HR MAX TEMP:  42; 6HR PCP:  0.13;


$$
WYZ021-027>030-104>119-261900-
SOUTHERN WYOMING

CITY           SKY/WX    TMP DP  RH WIND       PRES   REMARKS
EVANSTON       FAIR      39  23  52 VRB3      30.05F
6HR MIN TEMP:  24; 6HR MAX TEMP:  39;

KEMMERER         N/A     34  23  64 W9        30.05S WCI  26
FORT BRIDGER   FAIR      42  21  43 W9G20     30.08S
ROCK SPRINGS   FAIR      41  24  51 SW10      30.04S
6HR MIN TEMP:  30; 6HR MAX TEMP:  41;

DIXON            N/A     40  31  69 SW3       30.05S
RAWLINS        CLOUDY    39  34  82 NW8       30.00R WCI  33
6HR MIN TEMP:  33; 6HR MAX TEMP:  39; 6HR PCP:  0.01;

SARATOGA       CLOUDY    39  34  81 NW12      30.00S WCI  32
LARAMIE        PTSUNNY   41  32  70 N21G26    29.94R
6HR MIN TEMP:  33; 6HR MAX TEMP:  41; 6HR PCP: TRACE;

CHEYENNE       CLOUDY    38  34  85 N17       29.92S WCI  28
6HR MIN TEMP:  38; 6HR MAX TEMP:  40; 6HR PCP: TRACE;

TORRINGTON     CLOUDY    48  35  60 NW15      29.91S
6HR MIN TEMP:  43; 6HR MAX TEMP:  50;

PINE BLUFFS    CLOUDY    45  36  70 N18G30    29.91S

$$




USA.gov is the U.S. government's official web portal to all federal, state and local government web resources and services.